Weather History for KHOT - November, 2012

Change the Weather History Date:

Wednesday, November 14, 2012

  Actual Average Record
Temperature  
Mean Temperature 46 °F -  
Max Temperature 57 °F 63 °F 86 °F (1999)
Min Temperature 34 °F 40 °F 19 °F (1986)
Degree Days  
Heating Degree Days 20    
Moisture  
Dew Point 29 °F    
Average Humidity 62    
Maximum Humidity 89    
Minimum Humidity 23    
Precipitation  
Precipitation 0.00 in - - ()
Sea Level Pressure  
Sea Level Pressure 30.39 in    
Wind  
Wind Speed 1 mph (ENE)    
Max Wind Speed 8 mph    
Max Gust Speed -    
Visibility 10 miles    
Events      
Averages and records for this station are not official NWS values.
T = Trace of Precipitation, MM = Missing Value Source: NWS Daily Summary

Daily Weather History Graph

Daily Weather History Graph

Search for Another Location

Airport or City:

Trip Planner

Search our weather history database for the weather conditions in past years. The results will help you decide how hot, cold, wet, or windy it might be!

Date:

Astronomy

Nov. 14, 2012 Rise Set
Actual Time 6:45 AM CST 5:08 PM CST
Civil Twilight 6:18 AM CST 5:34 PM CST
Nautical Twilight 5:48 AM CST 6:05 PM CST
Astronomical Twilight 5:18 AM CST 6:34 PM CST
Moon 7:32 AM CST (11/14) 5:59 PM CST (11/14)
Length of Visible Light 11h 16m
Length of Day
10h 22m
New Moon, 1% of the Moon is Illuminated
Nov 14
New Moon
Nov 20
First Quarter
Nov 28
Full
Dec 6
Last Quarter
Dec 13
New

Hourly Weather History & Observations

Time (CST) Temp. Windchill Dew Point Humidity Pressure Visibility Wind Dir Wind Speed Gust Speed Precip Events Conditions
12:53 AM 34.0 °F - 30.9 °F 89% 30.43 in 10.0 mi Calm Calm - N/A   Clear
1:53 AM 36.0 °F - 33.1 °F 89% 30.42 in 10.0 mi Calm Calm - N/A   Clear
2:53 AM 37.0 °F - 33.1 °F 86% 30.43 in 10.0 mi Calm Calm - N/A   Clear
3:53 AM 37.9 °F 34.4 °F 34.0 °F 86% 30.43 in 10.0 mi SW 4.6 mph - N/A   Clear
4:53 AM 37.9 °F - 34.0 °F 86% 30.42 in 10.0 mi Calm Calm - N/A   Partly Cloudy
5:53 AM 37.0 °F - 34.0 °F 89% 30.43 in 10.0 mi Calm Calm - N/A   Clear
6:53 AM 36.0 °F - 32.0 °F 86% 30.44 in 10.0 mi Calm Calm - N/A   Clear
7:53 AM 37.0 °F - 33.1 °F 86% 30.45 in 10.0 mi Calm Calm - N/A   Clear
8:53 AM 45.0 °F - 34.0 °F 65% 30.46 in 10.0 mi Calm Calm - N/A   Clear
9:53 AM 48.0 °F - 26.1 °F 42% 30.45 in 10.0 mi Calm Calm - N/A   Clear
10:53 AM 52.0 °F - 25.0 °F 35% 30.44 in 10.0 mi East 6.9 mph - N/A   Clear
11:53 AM 54.0 °F - 24.1 °F 31% 30.41 in 10.0 mi ENE 5.8 mph - N/A   Clear
12:53 PM 55.0 °F - 24.1 °F 30% 30.38 in 10.0 mi NE 8.1 mph - N/A   Clear
1:53 PM 57.0 °F - 23.0 °F 27% 30.35 in 10.0 mi East 6.9 mph - N/A   Clear
2:53 PM 57.9 °F - 19.9 °F 23% 30.34 in 10.0 mi NNE 8.1 mph - N/A   Clear
3:53 PM 57.0 °F - 21.0 °F 25% 30.34 in 10.0 mi Calm Calm - N/A   Clear
4:53 PM 53.1 °F - 24.1 °F 32% 30.33 in 10.0 mi NNE 3.5 mph - N/A   Clear
5:53 PM 45.0 °F 43.5 °F 28.9 °F 53% 30.34 in 10.0 mi East 3.5 mph - N/A   Clear
6:53 PM 44.1 °F - 30.0 °F 58% 30.35 in 10.0 mi Calm Calm - N/A   Clear
7:53 PM 41.0 °F - 30.0 °F 65% 30.35 in 10.0 mi Calm Calm - N/A   Clear
8:53 PM 37.9 °F - 30.9 °F 76% 30.35 in 10.0 mi Calm Calm - N/A   Clear
9:53 PM 37.0 °F - 30.0 °F 76% 30.35 in 10.0 mi Calm Calm - N/A   Clear
10:53 PM 36.0 °F - 30.0 °F 79% 30.35 in 10.0 mi Calm Calm - N/A   Clear
11:53 PM 34.0 °F - 30.0 °F 85% 30.35 in 10.0 mi Calm Calm - N/A   Clear